Regional Weather Roundup
Issued by NWS Green Bay, WI

Home | Current Version | Previous Version | Text Only | Print | Product List | Glossary On
Versions: 1 2 3 4 5 6 7 8 9 10 11 12 13 14 15 16 17 18 19 20 21 22 23 24 25 26 27 28 29 30 31 32 33 34 35 36 37 38 39 40 41 42 43 44 45 46 47 48 49 50
000
ASUS43 KGRB 282010
RWRGRB

NORTH-CENTRAL AND NORTHEAST WISCONSIN REGIONAL WEATHER ROUNDUP
NATIONAL WEATHER SERVICE GREEN BAY WI
200 PM CST SUN DEC 28 2014

WIZ005-009-010>012-018-019-282100-
NORTH CENTRAL WISCONSIN

CITY           SKY/WX    TMP DP  RH WIND       PRES   REMARKS
IRONWOOD       CLOUDY    14   9  79 NW10      30.10R WCI   1
MANITOWISH WTR PTSUNNY   14   8  75 NW7       30.08R WCI   4
ARBOR VITAE    CLOUDY    17  11  76 NW6       30.06S WCI   9
EAGLE RIVER    PTSUNNY   16   7  68 NW8       30.05R WCI   5
LAND O LAKES   PTSUNNY   18   8  64 NW8G17    30.06R WCI   8
RHINELANDER    CLOUDY    17  10  74 W9        30.07R WCI   6
PHILLIPS       CLOUDY    18  11  75 NW9       30.08S WCI   7
ANTIGO         FLURRIES  17  13  82 W6        30.07R WCI   9
TOMAHAWK       FLURRIES  19  12  76 NW8       30.08S WCI   9
MERRILL        LGT SNOW  20  16  83 CALM      30.09S
$$

WIZ013-073-282100-
NORTHEAST WISCONSIN

CITY           SKY/WX    TMP DP  RH WIND       PRES   REMARKS
IRON MOUNTAIN    N/A     22  10  60 NW10      30.05R
MARINETTE      PTSUNNY   25  16  68 NW5       30.09R
OCONTO         SUNNY     26  14  60 W7        30.11R
$$

WIZ017-030-035>037-045-282100-
CENTRAL WISCONSIN

CITY           SKY/WX    TMP DP  RH WIND       PRES   REMARKS
MEDFORD        LGT SNOW  16  12  86 W3        30.09R
WAUSAU         CLOUDY    18  13  80 NW5       30.10R HAZE
MOSINEE        LGT SNOW  19  18  93 NW7       30.11R
MARSHFIELD     CLOUDY    18  13  80 NW6       30.11R WCI  10
WISC RAPIDS    CLOUDY    25  16  68 NW5       30.13R
STEVENS POINT  FLURRIES  19  15  84 W5        30.12R
WAUPACA        MOSUNNY   30  18  61 NW7       30.12R
SHAWANO        CLOUDY    27  17  67 W5        30.12R
CLINTONVILLE   CLOUDY    27  18  69 NW6       30.11S
$$

WIZ038-039-048-051-282100-
FOX VALLEY

CITY           SKY/WX    TMP DP  RH WIND       PRES   REMARKS
NWS GREEN BAY  PTSUNNY   27  18  69 W6        30.12R
APPLETON       MOSUNNY   27  18  69 W5        30.11S
OSHKOSH        SUNNY     28  18  66 CALM      30.12S
FOND DU LAC    SUNNY     30  19  63 NW7       30.13R
$$

WIZ022-050-052-282100-
EAST CENTRAL WISCONSIN

CITY           SKY/WX    TMP DP  RH WIND       PRES   REMARKS
STURGEON BAY   SUNNY     25  14  63 W10       30.11R
MANITOWOC      SUNNY     28  21  75 W12       30.12R
SHEBOYGAN      SUNNY     29  18  63 NW10      30.12R
$$

LMZ563-521-522-541>543-282100-
LAKESHORE

STATION/POSITION TIME  TEMP    WIND        PRES    VSBY  WAVE
                       AIR SEA DIR/SP/G                  HT/PER
                 (UTC) (F)     (DEG/KT/KT) (MB)    (MI)  (FT/S)
SHEBOYGAN LKSHOR 2000   29 36  300/  7/  9 1021.2R
KEWAUNEE LKSHORE 2000   27     300/  9/ 13 1018.6R
TWO RIVERS CG    1900   28 36              1019.2      6   0
NORTHPORT PIER   2000   26     300/  8/ 15 1018.6F
SISTER BAY LKSHO 1900          300/ 15/ 16   N/A
STURGEON BAY CG  1900   27 34  280/  5     1019.9      6   0
CHAMBERS ISLAND  2000   27     290/  3/  7 1019.3S
MENOMINEE LKSHOR 2000   26     310/ 12/ 15 1019.7S
$$


USA.gov is the U.S. government's official web portal to all federal, state and local government web resources and services.